Imperial, NE

10:13 AM MST on February 12, 2016 (GMT -0700)
Imperial Municipal

Weather History for KIML - December, 2014

Change the Weather History Date:

Saturday, December 13, 2014

  Actual Average Record
Temperature  
Mean Temperature 49 °F 28 °F  
Max Temperature 57 °F 41 °F 72 °F (1921)
Min Temperature 40 °F 16 °F -18 °F (1919)
Degree Days  
Heating Degree Days 16 37  
Month to date heating degree days 368 461  
Cooling Degree Days 0 0  
Month to date cooling degree days 0 0  
Year to date cooling degree days 955 963  
Moisture  
Dew Point 42 °F    
Average Humidity 77    
Maximum Humidity 96    
Minimum Humidity 57    
Precipitation  
Precipitation 0.00 in 0.01 in 0.39 in (1984)
Sea Level Pressure  
Sea Level Pressure 29.84 in    
Wind  
Wind Speed 11 mph (SSE)    
Max Wind Speed 20 mph    
Max Gust Speed 23 mph    
Visibility 7 miles    
Events Fog    
T = Trace of Precipitation, MM = Missing Value Source: NWS Daily Summary

Daily Weather History Graph

Daily Weather History Graph

Search for Another Location

Airport or City:

Trip Planner

Search our weather history database for the weather conditions in past years. The results will help you decide how hot, cold, wet, or windy it might be!

Date:

Astronomy

Dec. 13, 2014 Rise Set
Actual Time 7:01 AM MST 4:20 PM MST
Civil Twilight 6:30 AM MST 4:50 PM MST
Nautical Twilight 5:56 AM MST 5:25 PM MST
Astronomical Twilight 5:23 AM MST 5:58 PM MST
Moon 11:25 PM MST (12/13) 11:24 AM MST (12/13)
Length of Visible Light 10h 20m
Length of Day
9h 18m
Waning Gibbous, 57% of the Moon is Illuminated
Dec 13
Waning Gibbous
Dec 14
Last Quarter
Dec 21
New
Dec 28
First Quarter
Jan 4
Full

Hourly Weather History & Observations

Time (MST) Temp. Windchill Dew Point Humidity Pressure Visibility Wind Dir Wind Speed Gust Speed Precip Events Conditions
12:53 AM 43.0 °F 38.2 °F 37.9 °F 82% 30.02 in 8.0 mi South 8.1 mph - N/A   Overcast
1:53 AM 43.0 °F 38.2 °F 39.0 °F 86% 30.01 in 8.0 mi South 8.1 mph - N/A   Overcast
2:35 AM 44.1 °F 36.8 °F 39.0 °F 82% 30.00 in 7.0 mi South 16.1 mph - N/A   Overcast
2:53 AM 44.1 °F 38.1 °F 39.0 °F 82% 30.01 in 7.0 mi South 11.5 mph - N/A   Overcast
3:53 AM 44.1 °F 38.1 °F 39.0 °F 82% 29.99 in 8.0 mi SSW 11.5 mph - N/A   Overcast
4:53 AM 45.0 °F 40.1 °F 39.9 °F 82% 29.97 in 9.0 mi South 9.2 mph - N/A   Overcast
5:53 AM 46.0 °F 41.9 °F 41.0 °F 83% 29.96 in 10.0 mi South 8.1 mph - N/A   Overcast
6:53 AM 46.9 °F - 42.1 °F 83% 29.94 in 10.0 mi SSE 8.1 mph - N/A   Overcast
7:53 AM 48.0 °F - 43.0 °F 83% 29.93 in 8.0 mi South 12.7 mph - N/A   Overcast
8:19 AM 48.9 °F - 43.0 °F 80% 29.92 in 8.0 mi SSE 8.1 mph - N/A   Overcast
8:53 AM 50.0 °F - 44.1 °F 80% 29.94 in 8.0 mi South 11.5 mph - N/A   Overcast
9:01 AM 50.0 °F - 43.0 °F 77% 29.92 in 8.0 mi South 11.5 mph - N/A   Overcast
9:46 AM 50.0 °F - 42.1 °F 74% 29.92 in 8.0 mi South 15.0 mph - N/A   Overcast
9:53 AM 50.0 °F - 42.1 °F 74% 29.94 in 8.0 mi SSE 16.1 mph - N/A   Overcast
10:29 AM 48.9 °F - 42.1 °F 77% 29.90 in 8.0 mi South 13.8 mph - N/A   Overcast
10:53 AM 48.9 °F - 41.0 °F 74% 29.89 in 8.0 mi South 10.4 mph - N/A   Overcast
11:53 AM 52.0 °F - 41.0 °F 66% 29.85 in 9.0 mi SSE 17.3 mph - N/A   Mostly Cloudy
12:53 PM 53.6 °F - 41.0 °F 62% 29.81 in 10.0 mi South 16.1 mph 23.0 mph N/A   Partly Cloudy
1:53 PM 55.9 °F - 42.1 °F 60% 29.78 in 10.0 mi SSE 12.7 mph - N/A   Clear
2:53 PM 57.0 °F - 42.1 °F 57% 29.77 in 10.0 mi SSE 13.8 mph - N/A   Clear
3:53 PM 53.1 °F - 42.1 °F 66% 29.76 in 10.0 mi SE 12.7 mph - N/A   Clear
4:53 PM 46.9 °F - 41.0 °F 80% 29.77 in 9.0 mi ESE 8.1 mph - N/A   Clear
5:53 PM 43.0 °F 38.2 °F 39.0 °F 86% 29.77 in 7.0 mi SE 8.1 mph - N/A   Clear
6:53 PM 42.1 °F 37.1 °F 39.0 °F 89% 29.77 in 6.0 mi SE 8.1 mph - N/A   Clear
7:35 PM 44.1 °F 37.7 °F 41.0 °F 89% 29.74 in 5.0 mi SE 12.7 mph - N/A   Scattered Clouds
7:44 PM 46.0 °F 40.6 °F 43.0 °F 89% 29.74 in 5.0 mi SE 11.5 mph - N/A   Mostly Cloudy
7:53 PM 46.9 °F - 44.1 °F 90% 29.74 in 5.0 mi SE 12.7 mph - N/A   Overcast
8:53 PM 48.9 °F - 46.9 °F 93% 29.72 in 5.0 mi ESE 8.1 mph - N/A   Overcast
9:51 PM 48.2 °F - 46.4 °F 93% 29.71 in 5.0 mi SE 8.1 mph - N/A   Overcast
9:53 PM 48.9 °F - 46.9 °F 93% 29.71 in 5.0 mi SE 8.1 mph - N/A   Overcast
10:31 PM 45.0 °F 43.5 °F 43.0 °F 93% 29.71 in 1.8 mi East 3.5 mph - N/A   Mostly Cloudy
10:39 PM 43.0 °F 40.3 °F 41.0 °F 93% 29.70 in 0.2 mi East 4.6 mph - N/A Fog Fog
10:53 PM 42.1 °F 39.2 °F 41.0 °F 96% 29.71 in 0.2 mi East 4.6 mph - N/A Fog Fog
11:53 PM 39.9 °F 35.1 °F 39.0 °F 97% 29.70 in 0.2 mi SSE 6.9 mph - N/A Fog Fog